KD8ZLZ Weather Reports


Display with metric or nautical units.
time (UTC)temp
F
wind
direction
speed
MPH
gust
MPH
rain 1hr
in
rain 24hr
in
rain mn
in
humidity
%
barometer
mb
20260505090033 58 229 6.0 10.0 0.00 0.19 0.19 82 1003.5
20260505085533 58 219 5.0 10.0 0.00 0.19 0.19 82 1003.5
20260505085033 58 219 4.0 9.0 0.00 0.19 0.19 83 1003.5
20260505084613 59 226 6.0 11.0 0.00 0.19 0.19 82 1003.5
20260505084054 59 214 6.0 9.0 0.00 0.19 0.19 83 1002.8
20260505083533 59 220 5.0 11.0 0.00 0.19 0.19 83 1002.8
20260505083033 59 219 5.0 12.0 0.00 0.19 0.19 83 1002.9
20260505082533 59 218 5.0 9.0 0.00 0.19 0.19 83 1002.9
20260505082052 59 215 5.0 8.0 0.00 0.19 0.19 83 1002.9
20260505081533 59 217 6.0 9.0 0.00 0.19 0.19 83 1002.9
20260505081033 58 206 5.0 8.0 0.00 0.19 0.19 84 1002.5
20260505080533 58 218 5.0 10.0 0.00 0.19 0.19 84 1002.5
20260505080033 58 207 5.0 7.0 0.00 0.19 0.19 84 1002.5
20260505075532 58 212 5.0 9.0 0.00 0.19 0.19 85 1002.5
20260505075032 58 219 5.0 9.0 0.00 0.19 0.19 85 1002.5
20260505074533 58 218 4.0 8.0 0.00 0.19 0.19 85 1002.2
20260505074033 58 211 5.0 10.0 0.00 0.19 0.19 85 1002.2
20260505073533 58 204 5.0 9.0 0.00 0.19 0.19 85 1002.5
20260505073033 58 223 4.0 7.0 0.00 0.19 0.19 86 1002.5
20260505072532 58 216 4.0 7.0 0.00 0.19 0.19 86 1002.5
20260505072033 58 227 4.0 7.0 0.00 0.19 0.19 87 1002.5
20260505071553 58 212 3.0 6.0 0.00 0.19 0.19 86 1002.5
20260505071032 58 207 3.0 7.0 0.00 0.19 0.19 85 1002.8
20260505070532 59 195 3.0 5.0 0.00 0.19 0.19 85 1002.8
20260505070032 59 217 4.0 6.0 0.00 0.19 0.19 84 1002.8
20260505065533 59 210 4.0 9.0 0.00 0.19 0.19 83 1002.8
20260505065033 59 209 5.0 11.0 0.00 0.19 0.19 83 1002.8
20260505064532 59 207 6.0 10.0 0.00 0.19 0.19 83 1002.8
20260505064033 59 203 5.0 10.0 0.01 0.19 0.19 84 1002.8
20260505063533 59 215 4.0 7.0 0.01 0.19 0.19 84 1002.5
20260505063033 59 216 4.0 7.0 0.01 0.19 0.19 85 1002.5
20260505062533 59 214 5.0 9.0 0.01 0.19 0.19 84 1002.5
20260505062032 59 218 4.0 8.0 0.01 0.19 0.19 85 1002.5
20260505061532 59 206 3.0 6.0 0.01 0.19 0.19 86 1002.5
20260505061032 59 212 4.0 8.0 0.01 0.19 0.19 87 1002.8
20260505060533 59 208 4.0 8.0 0.02 0.19 0.19 87 1002.8
20260505060033 59 198 6.0 11.0 0.04 0.19 0.19 87 1002.8
20260505055553 59 213 7.0 13.0 0.05 0.19 0.19 87 1002.8
20260505055053 59 206 7.0 12.0 0.06 0.19 0.19 86 1002.5
20260505054533 59 227 5.0 10.0 0.06 0.19 0.19 87 1002.5
20260505054033 59 208 7.0 11.0 0.05 0.18 0.18 86 1003.1
20260505053533 59 203 7.0 14.0 0.05 0.18 0.18 86 1003.1
20260505053032 59 218 6.0 10.0 0.06 0.18 0.18 86 1003.1
20260505052532 59 214 6.0 12.0 0.07 0.18 0.18 86 1003.1
20260505052034 59 205 7.0 12.0 0.07 0.18 0.18 85 1003.1
20260505051533 59 208 5.0 9.0 0.08 0.18 0.18 85 1003.1
20260505051033 60 212 4.0 7.0 0.08 0.18 0.18 83 1003.5
20260505050532 60 223 6.0 12.0 0.07 0.17 0.17 81 1003.5
20260505014032 67 213 7.0 11.0 0.00 0.00 0.00 60 1001.9
20260505013032 67 219 5.0 9.0 0.00 0.00 0.00 61 1001.9
20260505012533 67 218 6.0 11.0 0.00 0.00 0.00 61 1001.9
20260505012033 67 213 7.0 15.0 0.00 0.00 0.00 62 1001.5
20260505011613 66 214 8.0 12.0 0.00 0.00 0.00 64 1001.5
20260505011033 65 200 5.0 8.0 0.00 0.00 0.00 67 1001.5
20260505010033 65 213 5.0 8.0 1.02 3.56 3.56 68 1001.8
20260505005553 64 210 5.0 8.0 1.27 3.56 3.56 70 1002.1
20260505005032 63 200 3.0 7.0 2.03 3.56 3.56 75 1002.1
20260505004533 63 207 2.0 4.0 2.03 3.56 3.56 77 1002.1
20260505004113 63 203 2.0 3.0 2.03 3.56 3.56 77 1002.1
20260505003533 63 206 2.0 4.0 2.03 3.56 3.56 76 1002.1
20260505003032 63 218 2.0 3.0 2.29 3.56 3.56 76 1002.0
20260505002533 63 205 2.0 4.0 2.29 3.56 3.56 76 1002.0
20260505002033 63 218 5.0 10.0 2.29 3.56 3.56 73 1002.0
20260505001533 63 214 6.0 13.0 2.29 3.56 3.56 73 1002.0
20260505001033 62 220 8.0 17.0 2.54 3.56 3.56 76 1002.0
20260505000532 63 235 9.0 16.0 3.05 3.30 3.30 73 1002.0
20260505000032 63 252 8.0 16.0 2.29 2.54 2.54 74 1001.9
20260504235532 61 266 5.0 12.0 2.29 2.29 2.29 83 1001.9
20260504235032 61 216 2.0 4.0 1.52 1.52 1.52 83 1001.9
20260504234534 61 247 2.0 5.0 1.52 1.52 1.52 85 1001.9
20260504234032 61 164 1.0 2.0 1.52 1.52 1.52 84 1000.9
20260504233553 61 220 2.0 5.0 1.52 1.52 1.52 81 1000.9
20260504233033 62 231 4.0 8.0 1.27 1.27 1.27 79 1000.9
20260504232532 62 206 6.0 13.0 1.27 1.27 1.27 78 1000.9
20260504232033 63 220 6.0 10.0 1.27 1.27 1.27 77 1000.6
20260504231532 63 233 8.0 14.0 1.27 1.27 1.27 74 1000.6
20260504231032 64 243 13.0 25.0 1.02 1.02 1.02 70 1000.6
20260504230533 67 238 11.0 23.0 0.25 0.25 0.25 61 1000.7
20260504230033 71 224 15.0 26.0 0.25 0.25 0.25 50 1000.8
20260504225532 74 226 10.0 25.0 0.00 0.00 0.00 45 1000.8
20260504225033 75 221 7.0 13.0 0.00 0.00 0.00 46 1000.8
20260504224532 75 216 8.0 12.0 0.00 0.00 0.00 46 1001.2
20260504224053 75 215 8.0 14.0 0.00 0.00 0.00 46 1001.5
20260504223533 76 217 7.0 16.0 0.00 0.00 0.00 46 1001.5
20260504223032 77 219 6.0 10.0 0.00 0.00 0.00 45 1001.6
20260504222532 78 221 8.0 13.0 0.00 0.00 0.00 43 1001.6
20260504222033 78 221 8.0 13.0 0.00 0.00 0.00 43 1001.6
20260504221533 76 217 6.0 15.0 0.00 0.00 0.00 44 1001.6
20260504221034 76 230 8.0 14.0 0.00 0.00 0.00 44 1001.9
20260504220532 77 223 9.0 16.0 0.00 0.00 0.00 43 1001.9
20260504220033 78 221 10.0 18.0 0.00 0.00 0.00 42 1002.0
20260504215532 78 220 7.0 14.0 0.00 0.00 0.00 44 1002.0
20260504215034 78 212 9.0 17.0 0.00 0.00 0.00 42 1002.0
20260504214533 78 221 9.0 16.0 0.00 0.00 0.00 42 1002.0
20260504214032 79 214 8.0 17.0 0.00 0.00 0.00 42 1002.3
20260504213532 78 224 8.0 14.0 0.00 0.00 0.00 43 1002.3
20260504213053 78 223 11.0 19.0 0.00 0.00 0.00 42 1002.3
20260504212533 77 218 9.0 14.0 0.00 0.00 0.00 42 1002.3
20260504212033 76 224 10.0 16.0 0.00 0.00 0.00 44 1002.2
20260504211532 77 215 8.0 16.0 0.00 0.00 0.00 43 1002.3
20260504211032 77 219 11.0 20.0 0.00 0.00 0.00 41 1002.6
20260504210533 78 219 11.0 17.0 0.00 0.00 0.00 41 1002.6
20260504210059 77 213 12.0 21.0 0.00 0.00 0.00 41 1002.6
20260504205553 78 214 9.0 19.0 0.00 0.00 0.00 40 1002.6
20260504205032 76 218 10.0 17.0 0.00 0.00 0.00 41 1002.6
20260504204532 75 226 10.0 18.0 0.00 0.00 0.00 41 1002.6
20260504204032 76 211 11.0 19.0 0.00 0.00 0.00 40 1002.9
20260504203533 76 211 10.0 18.0 0.00 0.00 0.00 39 1002.9
20260504203033 77 215 10.0 16.0 0.00 0.00 0.00 38 1002.9
20260504202532 76 229 9.0 16.0 0.00 0.00 0.00 38 1002.9
20260504202112 76 219 13.0 22.0 0.00 0.00 0.00 37 1002.9
20260504201533 77 215 9.0 16.0 0.00 0.00 0.00 36 1002.9
20260504201033 77 213 9.0 16.0 0.00 0.00 0.00 35 1002.9
20260504200532 77 208 10.0 21.0 0.00 0.00 0.00 35 1003.2
20260504200033 77 210 12.0 21.0 0.00 0.00 0.00 35 1003.3
20260504195533 77 225 13.0 24.0 0.00 0.00 0.00 35 1003.3
20260504195033 76 211 8.0 14.0 0.00 0.00 0.00 35 1003.3
20260504194532 76 217 12.0 18.0 0.00 0.00 0.00 35 1003.2
20260504194032 76 228 11.0 17.0 0.00 0.00 0.00 34 1003.2
20260504193532 77 211 8.0 17.0 0.00 0.00 0.00 34 1003.3
20260504193032 77 210 9.0 18.0 0.00 0.00 0.00 35 1003.3
20260504192533 77 213 8.0 17.0 0.00 0.00 0.00 35 1003.6
20260504192033 76 212 11.0 19.0 0.00 0.00 0.00 34 1003.3
20260504191552 76 216 11.0 21.0 0.00 0.00 0.00 34 1003.2
20260504191053 76 221 12.0 20.0 0.00 0.00 0.00 34 1003.6
20260504190532 76 205 9.0 19.0 0.00 0.00 0.00 34 1003.6
20260504190032 76 202 9.0 18.0 0.00 0.00 0.00 34 1003.6
20260504185553 76 192 10.0 19.0 0.00 0.00 0.00 33 1003.6
20260504185032 76 225 11.0 18.0 0.00 0.00 0.00 34 1003.6
20260504184532 76 223 9.0 18.0 0.00 0.00 0.00 34 1003.6
20260504184033 76 219 9.0 18.0 0.00 0.00 0.00 34 1004.0
20260504183533 75 222 10.0 22.0 0.00 0.00 0.00 34 1003.9
20260504183033 75 220 9.0 18.0 0.00 0.00 0.00 33 1003.9
20260504182533 76 213 11.0 22.0 0.00 0.00 0.00 32 1004.0
20260504182053 75 228 9.0 17.0 0.00 0.00 0.00 33 1004.3
20260504181533 75 235 11.0 19.0 0.00 0.00 0.00 32 1004.3
20260504181033 75 220 13.0 19.0 0.00 0.00 0.00 31 1004.3
20260504180553 75 249 10.0 21.0 0.00 0.00 0.00 33 1004.3
20260504180032 75 226 9.0 16.0 0.00 0.00 0.00 35 1004.3
20260504175532 75 223 9.0 14.0 0.00 0.00 0.00 35 1004.3
20260504175033 74 225 9.0 15.0 0.00 0.00 0.00 35 1004.6
20260504174534 75 214 8.0 13.0 0.00 0.00 0.00 37 1004.6
20260504174033 74 222 8.0 16.0 0.00 0.00 0.00 37 1004.9
20260504173552 74 213 10.0 17.0 0.00 0.00 0.00 38 1004.9
20260504173032 74 203 8.0 15.0 0.00 0.00 0.00 38 1005.0
20260504172533 74 216 7.0 15.0 0.00 0.00 0.00 38 1005.0
20260504172053 74 210 9.0 17.0 0.00 0.00 0.00 38 1005.0
20260504171532 73 220 7.0 14.0 0.00 0.00 0.00 40 1005.3
20260504171052 73 213 8.0 13.0 0.00 0.00 0.00 40 1005.3
20260504170553 73 211 8.0 14.0 0.00 0.00 0.00 41 1005.3
20260504170114 73 199 7.0 14.0 0.00 0.00 0.00 41 1005.6
20260504151052 66 211 8.0 13.0 0.00 0.00 0.00 51 1006.1
20260504150533 65 214 7.0 13.0 0.00 0.00 0.00 51 1006.1
20260504141032 61 219 8.0 12.0 0.00 0.00 0.00 57 1006.3
20260504140532 61 215 6.0 10.0 0.00 0.00 0.00 58 1006.3
20260504130532 55 222 6.0 10.0 0.00 0.00 0.00 66 1006.9
20260504110532 48 208 4.0 7.0 0.00 0.00 0.00 75 1006.6
20260504100533 47 201 4.0 6.0 0.00 0.00 0.00 75 1006.6